[[{"header":{"parameterUnit":"m.s-1","parameterCategory":1,"la1":30.2991,"la2":30.254,"lo1":-89.0895,"lo2":-89.0444,"dy":0.0017,"dx":0.0017,"nx":28,"ny":28,"refTime":"2024-02-09T09:00:00:Z","depth":0,"parameterNumber":2,"parameterNumberName":"U-component_of_WINDS"},"data":[0,0,0,0,0,0,0,0,0,0,0,0,0,0,0,0,0,0,0,0,0,0,0,0,0,0,0,0,0,0,0,0,0,0,0,0,0,0,0,0,0,0,0,0,0,0,0,0,0,0,0,0,0,0,0,0,0,0,-4.0977,-4.0977,0,-4.1028,-4.1028,-4.1029,-4.1013,-4.1012,-4.1011,-4.101,-4.1059,-4.1061,-4.1064,0,0,0,0,0,0,0,0,0,0,0,0,0,-4.0866,-4.0868,-4.0977,-4.0977,-4.0978,-4.1027,-4.1028,-4.1029,-4.1014,-4.1012,-4.1011,-4.101,-4.1058,-4.1061,-4.1064,0,0,0,0,0,0,0,0,0,0,0,0,0,-4.0915,-4.0869,-4.0977,-4.0977,-4.0977,-4.1027,-4.1028,-4.1029,-4.1014,-4.1012,-4.1011,-4.1009,-4.1058,-4.1061,-4.1064,-4.1117,0,0,-4.1075,-4.1076,0,0,0,0,0,0,0,0,-4.0912,-4.0919,-4.0976,-4.0977,-4.0977,-4.1013,-4.1007,-4.1058,-4.1014,-4.1,-4.101,-4.1009,-4.1045,-4.1049,-4.1062,-4.1119,-4.1121,-4.1075,-4.1077,-4.1078,-4.1079,0,0,0,0,0,0,0,-4.0909,-4.0917,-4.0997,-4.0977,-4.0978,-4.0974,-4.0979,-4.1017,-4.103,-4.1001,-4.1,-4.1006,-4.1045,-4.1059,-4.1063,-4.1122,-4.1075,-4.1078,-4.108,-4.1081,-4.1226,-4.1228,0,0,0,0,0,0,-4.0905,-4.0914,-4.0995,-4.0998,-4.094,-4.0977,-4.0983,-4.1003,-4.103,-4.1033,-4.1008,-4.1005,-4.1054,-4.1059,-4.1065,-4.1128,-4.1078,-4.1082,-4.1084,-4.1224,-4.1227,-4.1229,0,0,0,0,0,0,-4.0903,-4.0913,-4.0993,-4.0956,-4.0966,-4.0981,-4.1003,-4.1005,-4.1018,-4.1035,-4.1037,-4.1019,-4.1053,-4.106,-4.1104,-4.113,-4.1083,-4.1086,-4.1222,-4.1225,-4.1228,-4.1256,0,0,0,0,0,0,-4.09,-4.0912,-4.0932,-4.0957,-4.0968,-4.1032,-4.1005,-4.1007,-4.1025,-4.1022,-4.1047,-4.1049,-4.1052,-4.1099,-4.1108,-4.1134,-4.1089,-4.122,-4.1224,-4.1227,-4.1252,-4.1259,-4.1265,0,0,0,0,0,-4.0896,-4.0937,-4.0933,-4.0943,-4.0993,-4.1034,-4.104,-4.1043,-4.1027,-4.1047,-4.1058,-4.1048,-4.1126,-4.1104,-4.1113,-4.1141,-4.1218,-4.1223,-4.1226,-4.125,-4.1258,-4.1264,0,0,0,0,0,0,-4.0912,-4.094,-4.0936,-4.0986,-4.1008,-4.1031,-4.1056,-4.1052,-4.1078,-4.1074,-4.1077,-4.1082,-4.1128,-4.1139,-4.1114,-4.1194,-4.117,-4.1176,-4.1184,-4.1192,-4.1198,-4.1193,-4.1092,0,0,0,0,0,-4.0923,-4.0954,-4.0976,-4.1018,-4.1029,-4.1041,-4.1059,-4.106,-4.1082,-4.1091,-4.1105,-4.1126,-4.1156,-4.1175,-4.1203,-4.1255,-4.126,-4.1279,-4.1285,-4.129,-4.1294,-4.1323,-4.1332,-4.1242,-4.1242,-4.1242,0,0,-4.0942,-4.0961,-4.098,-4.1022,-4.1039,-4.107,-4.1049,-4.1083,-4.1106,-4.1096,-4.1139,-4.1151,-4.1175,-4.1224,-4.1246,-4.1234,-4.1321,-4.1295,-4.1299,-4.13,-4.1328,-4.1337,-4.1344,-4.1245,-4.1244,-4.1244,0,0,-4.0994,-4.1012,-4.105,-4.1068,-4.1095,-4.1103,-4.1113,-4.1138,-4.1145,-4.1189,-4.1182,-4.1211,-4.1261,-4.1279,-4.1295,-4.1358,-4.135,-4.1367,-4.1397,-4.1426,-4.1433,-4.1439,-4.1461,-4.1469,-4.1372,-4.1372,-4.1372,0,-4.1015,-4.1063,-4.1069,-4.1105,-4.1123,-4.1118,-4.1156,-4.1173,-4.1207,-4.122,-4.1208,-4.1272,-4.1288,-4.1342,-4.1357,-4.1371,-4.1381,-4.1363,-4.1432,-4.1438,-4.1444,-4.1465,-4.1473,-4.1374,-4.1374,-4.1374,-4.1373,0,-4.1087,-4.1121,-4.1148,-4.1184,-4.1206,-4.1242,-4.1254,-4.1275,-4.1276,-4.1286,-4.1331,-4.1351,-4.1383,-4.1397,-4.1396,-4.1451,-4.1443,-4.1431,-4.1407,-4.1454,-4.1474,-4.1482,-4.1377,-4.1376,-4.1375,-4.1375,0,0,-4.1147,-4.1189,-4.1198,-4.1215,-4.1246,-4.1272,-4.1309,-4.1343,-4.1361,-4.1386,-4.1417,-4.1462,-4.1452,-4.147,-4.1472,-4.1498,-4.1547,-4.1483,-4.1484,-4.1493,-4.1608,-4.1615,-4.1624,-4.1543,-4.1544,-4.1546,-4.1605,0,-4.1202,-4.1267,-4.1276,-4.1334,-4.1365,-4.1363,-4.1395,-4.1418,-4.1429,-4.1457,-4.147,-4.1501,-4.1486,-4.1497,-4.1523,-4.1535,-4.1569,-4.1531,-4.157,-4.1572,-4.1562,-4.1635,-4.1642,-4.1697,-4.1613,-4.1615,-4.1616,0,-4.1272,-4.1301,-4.1363,-4.1392,-4.1406,-4.1435,-4.1467,-4.1495,-4.1521,-4.1527,-4.155,-4.155,-4.1588,-4.1565,-4.1618,-4.1592,-4.1609,-4.1618,-4.162,-4.1622,-4.1595,-4.1637,-4.1715,-4.1722,-4.1628,-4.1627,-4.1626,0,-4.1309,-4.1364,-4.1408,-4.1423,-4.1458,-4.1478,-4.1494,-4.1519,-4.1539,-4.1568,-4.1581,-4.1613,-4.163,-4.1655,-4.1664,-4.1646,-4.1717,-4.1694,-4.1723,-4.1723,-4.1735,-4.1734,-4.1815,-4.175,-4.1749,-4.1749,-4.1749,0,-4.1367,-4.1405,-4.1426,-4.1453,-4.1495,-4.1505,-4.1547,-4.1562,-4.1585,-4.1615,-4.1615,-4.1643,-4.1654,-4.1683,-4.1691,-4.1734,-4.1742,-4.1748,-4.1749,-4.1747,-4.1746,-4.1756,-4.1752,-4.1752,-4.1751,-4.1751,-4.175,0,-4.1414,-4.1429,-4.1478,-4.1508,-4.1517,-4.1547,-4.1573,-4.1599,-4.1612,-4.165,-4.1659,-4.1679,-4.1714,-4.1727,-4.1769,-4.1774,-4.1824,-4.1823,-4.1815,-4.1815,-4.1842,-4.1839,-4.1931,-4.1944,-4.1872,-4.1872,-4.1873,0,-4.1449,-4.1478,-4.1513,-4.1534,-4.1551,-4.1584,-4.1606,-4.1617,-4.164,-4.1674,-4.1696,-4.1732,-4.1761,-4.1818,-4.1835,-4.1868,-4.1867,-4.1897,-4.1871,-4.1869,-4.1866,-4.1863,-4.1866,-4.1901,-4.1901,-4.1902,-4.1903,0,-4.151,-4.1517,-4.1548,-4.1583,-4.1609,-4.1637,-4.1664,-4.1681,-4.1697,-4.1722,-4.1759,-4.1782,-4.1827,-4.1862,-4.1897,-4.1913,-4.191,-4.1911,-4.1919,-4.1916,-4.191,-4.1913,-4.1826,-4.1908,-4.1908,-4.1907,-4.1907,-4.1907,-4.1551,-4.1577,-4.1606,-4.1642,-4.1664,-4.169,-4.1717,-4.1734,-4.1766,-4.1804,-4.181,-4.185,-4.1877,-4.1924,-4.1941,-4.1973,-4.1964,-4.1976,-4.1979,-4.1981,-4.1983,-4.1908,-4.1979,-4.1979,-4.1979,-4.1979,-4.1979,0,-4.161,-4.163,-4.1663,-4.1702,-4.173,-4.1728,-4.1759,-4.1782,-4.1818,-4.1845,-4.1874,-4.1918,-4.1953,-4.1975,-4.201,-4.2031,-4.2031,-4.204,-4.2037,-4.2041,-4.1989,-4.1978,-4.2039,-4.2039,-4.2039,-4.2039,-4.2039,-4.2039,-4.1644,-4.1689,-4.17,-4.1757,-4.1776,-4.1816,-4.1834,-4.1858,-4.188,-4.1929,-4.1959,-4.1974,-4.1999,-4.2036,-4.2069,-4.2074,-4.2087,-4.2096,-4.2101,-4.2051,-4.2045,-4.2038,-4.2028,-4.2099,-4.2099,-4.215,-4.2151,-4.2151]},{"header":{"parameterUnit":"m.s-1","parameterCategory":1,"la1":30.2991,"la2":30.254,"lo1":-89.0895,"lo2":-89.0444,"dy":0.0017,"dx":0.0017,"nx":28,"ny":28,"refTime":"2024-02-09T09:00:00:Z","depth":0,"parameterNumber":3,"parameterNumberName":"V-component_of_WINDS"},"data":[0,0,0,0,0,0,0,0,0,0,0,0,0,0,0,0,0,0,0,0,0,0,0,0,0,0,0,0,0,0,0,0,0,0,0,0,0,0,0,0,0,0,0,0,0,0,0,0,0,0,0,0,0,0,0,0,0,0,2.8576,2.8576,0,2.8614,2.8615,2.8615,2.8618,2.8618,2.8617,2.8617,2.8654,2.8655,2.8657,0,0,0,0,0,0,0,0,0,0,0,0,0,2.8505,2.8506,2.8576,2.8576,2.8577,2.8614,2.8615,2.8615,2.8618,2.8618,2.8617,2.8617,2.8653,2.8655,2.8657,0,0,0,0,0,0,0,0,0,0,0,0,0,2.8539,2.8507,2.8576,2.8583,2.8584,2.8614,2.8615,2.8616,2.8618,2.8618,2.8617,2.8616,2.8653,2.8655,2.8657,2.8682,0,0,2.8663,2.8664,0,0,0,0,0,0,0,0,2.8537,2.8542,2.8581,2.8582,2.8584,2.8611,2.8604,2.8638,2.8618,2.8605,2.8617,2.8616,2.864,2.8643,2.8652,2.8684,2.8685,2.8663,2.8665,2.8666,2.8666,0,0,0,0,0,0,0,2.8535,2.854,2.8591,2.8582,2.8583,2.8584,2.8588,2.861,2.8625,2.8606,2.8607,2.8611,2.864,2.865,2.8652,2.8686,2.8663,2.8665,2.8666,2.8667,2.8745,2.8745,0,0,0,0,0,0,2.8531,2.8538,2.859,2.8592,2.8558,2.8586,2.8591,2.8603,2.8625,2.8628,2.8612,2.8611,2.8646,2.865,2.8654,2.8687,2.8666,2.8667,2.8669,2.8744,2.8745,2.8746,0,0,0,0,0,0,2.853,2.8536,2.8588,2.8565,2.8572,2.8588,2.8602,2.8604,2.8613,2.8629,2.8632,2.8618,2.8646,2.8651,2.8676,2.8688,2.8668,2.867,2.8743,2.8744,2.8745,2.8752,0,0,0,0,0,0,2.8528,2.8535,2.8545,2.8565,2.8573,2.861,2.8602,2.8605,2.8617,2.8616,2.8636,2.8639,2.8646,2.8673,2.8678,2.8691,2.8672,2.8742,2.8743,2.8745,2.8751,2.8753,2.8756,0,0,0,0,0,2.8525,2.8544,2.8545,2.8551,2.8585,2.861,2.8615,2.8623,2.8618,2.8628,2.8639,2.8638,2.8686,2.8675,2.8681,2.8695,2.8741,2.8743,2.8745,2.875,2.8753,2.8755,0,0,0,0,0,0,2.8522,2.8546,2.8548,2.8574,2.8591,2.8611,2.8623,2.8626,2.8643,2.8642,2.8651,2.8656,2.8681,2.869,2.8678,2.8722,2.8713,2.8716,2.8715,2.8718,2.872,2.8718,2.8674,0,0,0,0,0,2.8525,2.8543,2.8563,2.8584,2.8593,2.8607,2.8618,2.8624,2.864,2.8647,2.866,2.8676,2.8695,2.8707,2.8725,2.8752,2.8758,2.8765,2.8767,2.8769,2.8772,2.879,2.8793,2.8752,2.8752,2.8752,0,0,2.8529,2.8545,2.8556,2.8584,2.8597,2.8617,2.8612,2.8632,2.8647,2.865,2.8675,2.8685,2.8704,2.8731,2.8744,2.874,2.8785,2.8771,2.8773,2.8774,2.8792,2.8796,2.8799,2.8753,2.8753,2.8752,0,0,2.8549,2.8562,2.8582,2.8597,2.8618,2.8628,2.8633,2.8654,2.8661,2.8687,2.869,2.8708,2.874,2.8754,2.8765,2.8795,2.8795,2.88,2.8812,2.883,2.8833,2.8836,2.8848,2.8852,2.8803,2.8803,2.8803,0,2.8552,2.8582,2.8592,2.8613,2.8627,2.8632,2.8653,2.8666,2.8692,2.8701,2.8696,2.8739,2.8752,2.8784,2.8791,2.88,2.8807,2.8798,2.8832,2.8835,2.8838,2.885,2.8854,2.8803,2.8803,2.8803,2.8803,0,2.8586,2.8607,2.8621,2.8647,2.8662,2.8683,2.8698,2.8711,2.8717,2.8727,2.8755,2.8771,2.8794,2.8802,2.8806,2.8836,2.8833,2.883,2.8821,2.8842,2.8854,2.8858,2.8804,2.8804,2.8804,2.8803,0,0,2.8601,2.8637,2.8642,2.8655,2.8681,2.8697,2.872,2.8744,2.8756,2.8774,2.8794,2.8823,2.8822,2.8835,2.8841,2.8856,2.8881,2.8852,2.8852,2.8858,2.8917,2.8919,2.8924,2.8882,2.8883,2.8883,2.8916,0,2.8624,2.8665,2.8677,2.8711,2.8732,2.8739,2.8759,2.8777,2.8789,2.8808,2.8821,2.8842,2.8837,2.8846,2.8861,2.8875,2.8893,2.8872,2.8901,2.8902,2.8897,2.893,2.8932,2.8961,2.892,2.8921,2.8921,0,2.8656,2.8677,2.8714,2.8741,2.875,2.8767,2.8792,2.8811,2.8832,2.884,2.8856,2.8862,2.8887,2.8877,2.8912,2.8898,2.8911,2.892,2.8921,2.8924,2.8913,2.8935,2.8971,2.8976,2.8928,2.8927,2.8927,0,2.8665,2.8703,2.8732,2.8743,2.8773,2.8786,2.88,2.8821,2.8836,2.8857,2.8867,2.8891,2.8904,2.8923,2.8935,2.8927,2.897,2.8961,2.8977,2.8977,2.8986,2.8985,2.9025,2.8993,2.8993,2.8993,2.8993,0,2.869,2.8713,2.8737,2.8754,2.8781,2.8795,2.8821,2.8834,2.8854,2.8874,2.8882,2.8901,2.8916,2.8937,2.8947,2.8976,2.8981,2.8989,2.8991,2.8989,2.8988,2.8997,2.8995,2.8994,2.8994,2.8993,2.8993,0,2.8705,2.8721,2.8753,2.8781,2.8789,2.8807,2.8831,2.8849,2.8862,2.8888,2.8895,2.8915,2.8941,2.8956,2.8988,2.8995,2.9028,2.9028,2.9021,2.9022,2.9038,2.9037,2.9086,2.9094,2.9056,2.9056,2.9056,0,2.8719,2.8737,2.8769,2.8784,2.8798,2.8822,2.8838,2.8854,2.887,2.8899,2.8913,2.894,2.8962,2.9004,2.9021,2.9047,2.9049,2.9065,2.9053,2.905,2.9051,2.905,2.9053,2.9066,2.9067,2.9067,2.9067,0,2.8744,2.8753,2.8776,2.8804,2.8824,2.8846,2.8867,2.8879,2.8899,2.8917,2.8945,2.8963,2.8998,2.9025,2.9052,2.9066,2.9071,2.9071,2.9077,2.9074,2.907,2.9074,2.9027,2.907,2.907,2.9069,2.9069,2.9069,2.876,2.8778,2.8804,2.883,2.8849,2.8871,2.889,2.8907,2.893,2.8961,2.8969,2.8999,2.9023,2.9061,2.9076,2.91,2.9097,2.9104,2.9106,2.9108,2.9109,2.9066,2.9104,2.9104,2.9104,2.9104,2.9104,0,2.8786,2.8804,2.8829,2.8861,2.8883,2.8887,2.8913,2.893,2.8957,2.898,2.9003,2.9037,2.9064,2.9085,2.9114,2.9129,2.9132,2.9136,2.9135,2.9139,2.9109,2.9103,2.9133,2.9133,2.9133,2.9133,2.9133,2.9133,2.8802,2.8834,2.8846,2.8888,2.8905,2.8936,2.8951,2.8971,2.899,2.9027,2.9051,2.9065,2.9088,2.9119,2.9145,2.9151,2.9161,2.9165,2.9171,2.9143,2.914,2.9137,2.9131,2.9167,2.9167,2.9198,2.9199,2.9199]}]]